{"data":{"norad_id":58064,"epoch":"2026-05-25T04:41:30.130368Z","epoch_age_seconds":55200,"freshness":"FRESH","line1":"1 58064U 23158P   26145.19548762  .00000472  00000+0  26672-4 0  9991","line2":"2 58064  43.0043 314.7246 0001674 281.1195  78.9469 15.27586641145278","mean_motion":15.27586641,"eccentricity":0.0001674,"inclination_deg":43.0043,"raan_deg":314.7246,"arg_perigee_deg":281.1195,"mean_anomaly_deg":78.9469,"bstar":2.6672e-5,"rev_number":14527,"period_min":94.26633890025,"perigee_km":481.88065134496,"apogee_km":484.17776979226,"semimajor_km":6861.1662105686,"source":"CELESTRAK","updated_at":"2026-05-25T13:38:18.501590Z"}}